When you browse on this site, cookies collect data to enhance your experience and personalize the content and advertising you see.
Visit our Privacy Policy to learn more. By continuing to use the site, you agree to this use of cookies and data.
  • In Schweiz
  • Länderverzeichnis
  • Für 7 Tage
  • Wassertemperatur
  • Wetterkarte
  • Widgets
  • user-avatar
    Anmelden

    Stündliche Wetter Bezlepkino

    Heute, 26 August, Montag

    Zeit Temperatur Niederschläge Wind Luftdruck Luftfeuchtigkeit
    00:00 +13°C° 0 mm 2 m/S 752 mmHg 90%
    01:00 +12°C° 0 mm 2 m/S 752 mmHg 92%
    02:00 +12°C° 0 mm 2 m/S 753 mmHg 93%
    03:00 +12°C° 0 mm 1 m/S 753 mmHg 93%
    04:00 +11°C° 0 mm 1 m/S 753 mmHg 94%
    05:00 +11°C° 0 mm 1 m/S 753 mmHg 94%
    06:00 +13°C° 0 mm 1 m/S 753 mmHg 88%
    07:00 +15°C° 0 mm 1 m/S 753 mmHg 81%
    08:00 +18°C° 0 mm 1 m/S 753 mmHg 75%
    09:00 +19°C° 0 mm 1 m/S 753 mmHg 70%
    10:00 +20°C° 0 mm 1 m/S 753 mmHg 65%
    11:00 +22°C° 0 mm 1 m/S 752 mmHg 60%
    12:00 +22°C° 0 mm 1 m/S 752 mmHg 59%
    13:00 +21°C° 0 mm 2 m/S 752 mmHg 57%
    14:00 +23°C° 0 mm 2 m/S 752 mmHg 55%
    15:00 +21°C° 0 mm 2 m/S 751 mmHg 59%
    16:00 +21°C° 0 mm 2 m/S 751 mmHg 63%
    17:00 +21°C° 0 mm 2 m/S 750 mmHg 68%
    18:00 +19°C° 0 mm 2 m/S 750 mmHg 72%
    19:00 +17°C° 0 mm 2 m/S 750 mmHg 76%
    20:00 +16°C° 0 mm 2 m/S 750 mmHg 80%
    21:00 +15°C° 0 mm 2 m/S 749 mmHg 81%
    22:00 +15°C° 0 mm 2 m/S 749 mmHg 82%
    23:00 +15°C° 0 mm 2 m/S 749 mmHg 84%

    Morgen, 27 August, Dienstag

    Zeit Temperatur Niederschläge Wind Luftdruck Luftfeuchtigkeit
    00:00 +15°C° 0 mm 2 m/S 748 mmHg 85%
    01:00 +13°C° 0 mm 3 m/S 748 mmHg 86%
    02:00 +13°C° 0 mm 3 m/S 748 mmHg 87%
    03:00 +13°C° 0 mm 3 m/S 748 mmHg 87%
    04:00 +13°C° 0 mm 3 m/S 747 mmHg 87%
    05:00 +14°C° 0 mm 4 m/S 747 mmHg 87%
    06:00 +15°C° 0 mm 4 m/S 747 mmHg 85%
    07:00 +17°C° 0 mm 4 m/S 747 mmHg 84%
    08:00 +17°C° 0 mm 5 m/S 746 mmHg 83%
    09:00 +19°C° 0.2 mm 5 m/S 746 mmHg 78%
    10:00 +20°C° 0.2 mm 5 m/S 746 mmHg 74%
    11:00 +21°C° 0.2 mm 6 m/S 746 mmHg 69%
    12:00 +22°C° 0.1 mm 6 m/S 746 mmHg 65%
    13:00 +22°C° 0.1 mm 6 m/S 746 mmHg 62%
    14:00 +22°C° 0.1 mm 6 m/S 746 mmHg 58%
    15:00 +22°C° 0 mm 5 m/S 746 mmHg 61%
    16:00 +21°C° 0 mm 4 m/S 746 mmHg 64%
    17:00 +20°C° 0 mm 4 m/S 746 mmHg 66%
    18:00 +18°C° 0 mm 4 m/S 746 mmHg 69%
    19:00 +17°C° 0 mm 4 m/S 746 mmHg 71%
    20:00 +14°C° 0 mm 3 m/S 747 mmHg 74%
    21:00 +14°C° 0 mm 3 m/S 747 mmHg 78%
    22:00 +13°C° 0 mm 3 m/S 747 mmHg 82%
    23:00 +12°C° 0 mm 3 m/S 748 mmHg 86%

    übermorgen, 28 August, Mittwoch

    Zeit Temperatur Niederschläge Wind Luftdruck Luftfeuchtigkeit
    00:00 +11°C° 0 mm 3 m/S 748 mmHg 88%
    01:00 +11°C° 0 mm 3 m/S 748 mmHg 90%
    02:00 +10°C° 0 mm 2 m/S 748 mmHg 92%
    03:00 +9°C° 0 mm 3 m/S 748 mmHg 92%
    04:00 +9°C° 0 mm 3 m/S 748 mmHg 92%
    05:00 +9°C° 0 mm 3 m/S 749 mmHg 92%
    06:00 +10°C° 0 mm 4 m/S 749 mmHg 85%
    07:00 +11°C° 0 mm 4 m/S 749 mmHg 79%
    08:00 +13°C° 0 mm 5 m/S 750 mmHg 73%
    09:00 +14°C° 0 mm 5 m/S 749 mmHg 67%
    10:00 +14°C° 0 mm 5 m/S 749 mmHg 61%
    11:00 +15°C° 0 mm 5 m/S 749 mmHg 55%
    12:00 +16°C° 0 mm 5 m/S 749 mmHg 53%
    13:00 +16°C° 0 mm 5 m/S 750 mmHg 50%
    14:00 +17°C° 0 mm 4 m/S 750 mmHg 47%
    15:00 +17°C° 0 mm 4 m/S 750 mmHg 51%
    16:00 +16°C° 0 mm 3 m/S 750 mmHg 56%
    17:00 +16°C° 0 mm 3 m/S 750 mmHg 60%
    18:00 +13°C° 0 mm 3 m/S 750 mmHg 62%
    19:00 +12°C° 0 mm 2 m/S 750 mmHg 65%
    20:00 +9°C° 0 mm 2 m/S 750 mmHg 68%
    21:00 +9°C° 0 mm 2 m/S 751 mmHg 69%
    22:00 +8°C° 0 mm 2 m/S 751 mmHg 71%
    23:00 +7°C° 0 mm 2 m/S 751 mmHg 72%

    29 August, Donnerstag

    Zeit Temperatur Niederschläge Wind Luftdruck Luftfeuchtigkeit
    00:00 +7°C° 0 mm 2 m/S 751 mmHg 73%
    01:00 +7°C° 0 mm 1 m/S 751 mmHg 74%
    02:00 +7°C° 0 mm 1 m/S 751 mmHg 76%
    03:00 +7°C° 0 mm 1 m/S 751 mmHg 76%
    04:00 +7°C° 0 mm 1 m/S 752 mmHg 77%
    05:00 +7°C° 0 mm 1 m/S 752 mmHg 77%
    06:00 +9°C° 0 mm 1 m/S 752 mmHg 72%
    07:00 +9°C° 0 mm 2 m/S 752 mmHg 66%
    08:00 +12°C° 0 mm 2 m/S 752 mmHg 61%
    09:00 +14°C° 0 mm 2 m/S 752 mmHg 57%
    10:00 +15°C° 0 mm 2 m/S 751 mmHg 53%
    11:00 +17°C° 0 mm 2 m/S 751 mmHg 48%
    12:00 +17°C° 0 mm 2 m/S 751 mmHg 50%
    13:00 +18°C° 0 mm 2 m/S 751 mmHg 52%
    14:00 +19°C° 0 mm 2 m/S 750 mmHg 54%
    15:00 +19°C° 0 mm 2 m/S 750 mmHg 59%
    16:00 +19°C° 0 mm 2 m/S 750 mmHg 63%
    17:00 +18°C° 0 mm 2 m/S 750 mmHg 68%
    18:00 +17°C° 0 mm 2 m/S 749 mmHg 73%
    19:00 +15°C° 0 mm 2 m/S 749 mmHg 77%
    20:00 +13°C° 0 mm 3 m/S 749 mmHg 82%
    21:00 +13°C° 0 mm 2 m/S 749 mmHg 84%
    22:00 +13°C° 0 mm 2 m/S 749 mmHg 87%
    23:00 +12°C° 0 mm 2 m/S 749 mmHg 90%

    30 August, Freitag

    Zeit Temperatur Niederschläge Wind Luftdruck Luftfeuchtigkeit
    00:00 +12°C° 0 mm 2 m/S 749 mmHg 91%
    01:00 +12°C° 0 mm 1 m/S 749 mmHg 93%
    02:00 +12°C° 0 mm 1 m/S 749 mmHg 94%
    03:00 +12°C° 0 mm 1 m/S 749 mmHg 94%
    04:00 +12°C° 0 mm 1 m/S 749 mmHg 94%
    05:00 +10°C° 0 mm 0 m/S 749 mmHg 95%
    06:00 +12°C° 0 mm 0 m/S 749 mmHg 91%
    07:00 +14°C° 0 mm 1 m/S 749 mmHg 87%
    08:00 +15°C° 0 mm 1 m/S 750 mmHg 83%
    09:00 +16°C° 0 mm 1 m/S 750 mmHg 81%
    10:00 +18°C° 0 mm 1 m/S 750 mmHg 80%
    11:00 +18°C° 0 mm 1 m/S 750 mmHg 78%
    12:00 +18°C° 0.3 mm 1 m/S 749 mmHg 79%
    13:00 +19°C° 0.3 mm 1 m/S 749 mmHg 80%
    14:00 +19°C° 0.3 mm 1 m/S 749 mmHg 81%
    15:00 +18°C° 0.1 mm 1 m/S 749 mmHg 82%
    16:00 +18°C° 0.1 mm 1 m/S 749 mmHg 84%
    17:00 +18°C° 0.1 mm 1 m/S 749 mmHg 85%
    18:00 +16°C° 0 mm 1 m/S 749 mmHg 87%
    19:00 +15°C° 0 mm 1 m/S 749 mmHg 89%
    20:00 +14°C° 0 mm 1 m/S 749 mmHg 91%
    21:00 +14°C° 0 mm 1 m/S 749 mmHg 91%
    22:00 +14°C° 0 mm 1 m/S 749 mmHg 92%
    23:00 +13°C° 0 mm 1 m/S 749 mmHg 92%

    31 August, Samstag

    Zeit Temperatur Niederschläge Wind Luftdruck Luftfeuchtigkeit
    00:00 +13°C° 0 mm 1 m/S 749 mmHg 92%
    01:00 +13°C° 0 mm 1 m/S 749 mmHg 92%
    02:00 +13°C° 0 mm 1 m/S 749 mmHg 92%
    03:00 +13°C° 0 mm 1 m/S 749 mmHg 93%
    04:00 +13°C° 0 mm 1 m/S 749 mmHg 93%
    05:00 +12°C° 0 mm 1 m/S 749 mmHg 94%
    06:00 +14°C° 0 mm 1 m/S 749 mmHg 90%
    07:00 +15°C° 0 mm 1 m/S 749 mmHg 86%
    08:00 +18°C° 0 mm 1 m/S 749 mmHg 82%
    09:00 +19°C° 0 mm 1 m/S 749 mmHg 76%
    10:00 +21°C° 0 mm 1 m/S 749 mmHg 70%
    11:00 +22°C° 0 mm 1 m/S 749 mmHg 64%
    12:00 +22°C° 0 mm 1 m/S 749 mmHg 62%
    13:00 +23°C° 0 mm 2 m/S 749 mmHg 60%
    14:00 +23°C° 0 mm 2 m/S 748 mmHg 57%
    15:00 +21°C° 0 mm 2 m/S 748 mmHg 62%
    16:00 +21°C° 0 mm 2 m/S 748 mmHg 67%
    17:00 +21°C° 0 mm 1 m/S 748 mmHg 72%
    18:00 +20°C° 0 mm 1 m/S 748 mmHg 75%
    19:00 +18°C° 0 mm 1 m/S 748 mmHg 78%
    20:00 +16°C° 0 mm 1 m/S 748 mmHg 82%
    21:00 +16°C° 0 mm 1 m/S 748 mmHg 83%
    22:00 +16°C° 0 mm 1 m/S 748 mmHg 84%
    23:00 +15°C° 0 mm 1 m/S 748 mmHg 85%
    Mehr zeigen